Weather reports worldwide

Advertisment
Ueckermünde, Germany (10193): temperature & dewpoint: 14.06.2019 06:00:00 - 20.06.2019 06:00:00 (CEST)Ueckermünde, Germany (10193): temperature 5cm & temperature -5cm: 14.06.2019 06:00:00 - 20.06.2019 06:00:00 (CEST)Ueckermünde, Germany (10193): temperature -20cm & temperature -100cm: 14.06.2019 06:00:00 - 20.06.2019 06:00:00 (CEST)Ueckermünde, Germany (10193): wind speed & gusts: 14.06.2019 06:00:00 - 20.06.2019 06:00:00 (CEST)Ueckermünde, Germany (10193): wind direction: 14.06.2019 06:00:00 - 20.06.2019 06:00:00 (CEST)Ueckermünde, Germany (10193): reduced air pressure: 14.06.2019 06:00:00 - 20.06.2019 06:00:00 (CEST)Ueckermünde, Germany (10193): visibility: 14.06.2019 06:00:00 - 20.06.2019 06:00:00 (CEST)Ueckermünde, Germany (10193): sunshine duration: 14.06.2019 06:00:00 - 20.06.2019 06:00:00 (CEST)Ueckermünde, Germany (10193): precipitation: 14.06.2019 06:00:00 - 20.06.2019 06:00:00 (CEST)
Date & Time tt [°C] td [°C] tt 5cm [°C] tt -5cm [°C] tt -20cm [°C] tt -100cm [°C] ff [km/h] ff [kn] fx [km/h] fx [kn] dd ppp [hPa] vv [km] sd [min] rr [mm]
20.06.2019 06:00:00 20,4 13,2 19,6 21,9 23,7 17,7 9 5 22 12 WSW 1007,4 54 0 0,0
20.06.2019 05:00:00 21,3 12,7 20,2 21,9 24,0 17,7 16 9 27 15 WSW 1007,7 44 0 0,0
20.06.2019 04:00:00 19,1 15,0 17,8 22,3 24,3 17,7 7 4 17 9 SSW 1007,2 25 0 0,0
20.06.2019 03:00:00 20,2 15,5 18,7 23,0 24,7 17,7 13 7 19 10 SSW 1007,0 26 0 0,0
20.06.2019 02:00:00 21,6 15,2 20,5 23,7 25,0 17,7 11 6 20 11 SSW 1006,7 30 0 0,0
20.06.2019 01:00:00 22,6 14,9 21,2 24,3 25,3 17,7 10 5 16 9 SSW 1006,9 30 0 0,0
20.06.2019 00:00:00 24,0 14,5 22,7 25,0 25,7 17,6 11 6 19 10 SSE 1006,8 33 0 0,0
19.06.2019 23:00:00 25,2 14,2 23,0 25,9 26,0 17,6 9 5 16 9 SE 1007,2 37 0 0,0
19.06.2019 22:00:00 25,9 14,7 22,7 27,4 26,3 17,6 7 4 18 10 SE 1007,4 44 3 0,0
19.06.2019 21:00:00 27,8 14,7 26,8 29,4 26,4 17,6 9 5 21 11 SE 1007,0 54 54 0,0
19.06.2019 20:00:00 29,3 13,8 29,8 31,0 26,4 17,6 10 5 16 9 SSE 1007,2 48 49 0,0
19.06.2019 19:00:00 27,4 17,0 28,2 32,8 26,2 17,6 7 4 21 11 ENE 1007,3 49 42 0,0
19.06.2019 18:00:00 28,5 16,5 32,3 34,0 25,9 17,6 11 6 17 9 NE 1007,6 49 60 0,0
19.06.2019 17:00:00 30,3 11,4 34,8 33,7 25,6 17,6 10 6 20 11 SSW 1008,3 30 60 0,0
19.06.2019 16:00:00 29,4 10,2 33,4 33,8 25,1 17,6 9 5 24 13 SSW 1008,9 40 53 0,0
19.06.2019 15:00:00 29,3 12,2 33,3 33,8 24,6 17,6 11 6 26 14 SSW 1009,6 34 57 0,0
19.06.2019 14:00:00 28,8 10,3 31,9 33,5 24,1 17,6 14 8 31 17 S 1009,9 29 55 0,0
19.06.2019 13:00:00 28,3 13,6 31,5 33,1 23,4 17,6 17 9 37 20 S 1010,2 22 59 0,0
19.06.2019 12:00:00 28,2 13,9 33,4 31,1 22,9 17,6 16 8 31 17 SSE 1010,7 20 59 0,0
19.06.2019 11:00:00 26,2 16,6 30,7 29,5 22,4 17,5 12 7 22 12 ENE 1011,2 19 60 0,0
19.06.2019 10:00:00 25,0 17,4 30,3 27,1 22,0 17,5 8 5 16 9 NE 1011,8 30 60 0,0
19.06.2019 09:00:00 24,1 14,9 27,2 24,7 21,9 17,5 8 4 14 8 SE 1012,1 32 60 0,0
19.06.2019 08:00:00 22,0 14,0 24,6 22,3 21,9 17,5 6 4 13 7 SE 1012,5 32 60 0,0
19.06.2019 07:00:00 19,8 13,4 20,3 20,7 22,1 17,5 7 4 16 9 SE 1012,9 32 60 0,0
19.06.2019 06:00:00 18,4 13,2 18,2 19,8 22,4 17,5 11 6 21 11 SSE 1013,1 39 29 0,0
19.06.2019 05:00:00 18,1 12,8 17,0 20,0 22,7 17,5 14 8 24 13 S 1013,3 35 0 0,0
19.06.2019 04:00:00 18,6 12,4 17,5 20,5 23,0 17,5 14 8 25 14 SSE 1013,3 42 0 0,0
19.06.2019 03:00:00 19,5 12,0 18,2 21,0 23,3 17,5 14 8 24 13 SSE 1013,5 45 0 0,0
19.06.2019 02:00:00 20,1 11,5 18,9 21,6 23,7 17,5 14 7 24 13 SE 1013,8 56 0 0,0
19.06.2019 01:00:00 21,1 11,3 19,9 22,2 24,1 17,5 13 7 22 12 SE 1014,4 48 0 0,0
19.06.2019 00:00:00 21,6 11,7 19,8 22,9 24,5 17,5 9 5 16 9 ESE 1014,6 44 0 0,0
18.06.2019 23:00:00 22,9 10,3 20,7 23,9 24,8 17,5 9 5 16 8 SE 1014,8 65 0 0,0
18.06.2019 22:00:00 23,4 10,9 17,4 25,5 25,1 17,5 6 3 11 6 ESE 1014,9 70 10 0,0
18.06.2019 21:00:00 25,4 11,0 23,7 27,6 25,3 17,5 8 5 17 9 SE 1014,7 70 56 0,0
18.06.2019 20:00:00 26,9 10,3 26,7 29,9 25,3 17,5 13 7 21 12 SSE 1014,9 64 60 0,0
18.06.2019 19:00:00 27,9 10,1 29,4 31,4 25,2 17,5 13 7 26 14 S 1015,3 45 49 0,0
18.06.2019 18:00:00 28,5 11,5 30,6 32,5 24,9 17,5 12 7 24 13 S 1015,6 23 52 0,0
18.06.2019 17:00:00 28,2 10,9 32,1 33,3 24,4 17,5 13 7 29 16 SSE 1016,0 21 58 0,0
18.06.2019 16:00:00 28,6 11,2 33,0 33,7 23,9 17,5 14 8 30 16 SSE 1016,6 26 60 0,0
18.06.2019 15:00:00 28,4 11,3 34,1 32,5 23,4 17,5 13 7 31 17 SSE 1017,3 24 53 0,0
18.06.2019 14:00:00 27,9 11,3 32,0 31,3 22,8 17,4 18 10 29 16 SSE 1017,9 37 38 0,0
18.06.2019 13:00:00 27,4 12,1 32,0 32,0 22,1 17,4 16 9 30 16 SSE 1018,3 23 58 0,0
18.06.2019 12:00:00 27,5 11,8 33,0 30,6 21,4 17,4 12 7 29 16 SSE 1018,6 30 60 0,0
18.06.2019 11:00:00 25,8 13,9 30,3 28,2 20,8 17,4 12 6 21 12 S 1019,0 32 60 0,0
18.06.2019 10:00:00 24,3 13,3 28,5 25,6 20,4 17,4 10 6 18 10 SSW 1019,4 31 60 0,0
18.06.2019 09:00:00 22,4 13,6 25,8 22,8 20,2 17,4 9 5 19 10 S 1019,7 29 60 0,0
18.06.2019 08:00:00 19,8 13,1 22,2 20,3 20,2 17,4 10 6 17 9 SSE 1019,9 27 60 0,0
18.06.2019 07:00:00 18,0 12,5 19,1 18,2 20,4 17,4 6 3 13 7 SE 1020,0 31 60 0,0
18.06.2019 06:00:00 16,3 11,7 14,6 17,1 20,7 17,4 4 2 12 7 ESE 1020,2 49 25 0,0
18.06.2019 05:00:00 15,8 10,9 13,6 17,0 21,1 17,4 7 4 12 6 E 1020,4 64 0 0,0
18.06.2019 04:00:00 14,5 10,8 10,1 17,4 21,4 17,4 5 3 10 5 ESE 1020,6 55 0 0,0
18.06.2019 03:00:00 14,4 11,1 10,3 18,0 21,8 17,4 4 2 9 5 ESE 1020,9 70 0 0,0
18.06.2019 02:00:00 13,6 11,8 10,6 18,8 22,2 17,4 4 2 9 5 ESE 1021,2 38 0 0,0
18.06.2019 01:00:00 17,0 11,9 12,9 19,7 22,5 17,4 5 3 11 6 ESE 1021,4 70 0 0,0
18.06.2019 00:00:00 17,9 11,8 15,1 20,6 22,9 17,4 6 4 19 10 E 1021,3 70 0 0,0
17.06.2019 23:00:00 19,4 12,2 18,0 21,6 23,2 17,4 11 6 23 12 ENE 1021,2 70 0 0,0
17.06.2019 22:00:00 19,7 12,6 18,5 23,0 23,5 17,4 11 6 21 11 ENE 1021,3 70 11 0,0
17.06.2019 21:00:00 20,1 12,9 19,3 24,9 23,7 17,4 13 7 22 12 NE 1021,2 70 60 0,0
17.06.2019 20:00:00 20,9 13,5 21,3 26,9 23,6 17,4 13 7 24 13 NE 1021,4 70 60 0,0
17.06.2019 19:00:00 21,2 14,5 23,3 28,6 23,5 17,4 17 9 25 13 NNE 1021,4 37 60 0,0
17.06.2019 18:00:00 22,0 14,3 25,2 29,7 23,1 17,4 16 9 25 13 NNE 1021,8 39 60 0,0
17.06.2019 17:00:00 22,8 15,2 26,2 29,7 22,8 17,4 16 8 25 13 NNE 1021,9 25 60 0,0
17.06.2019 16:00:00 22,7 15,8 27,0 28,1 22,6 17,4 15 8 25 13 NNE 1022,2 26 34 0,0
17.06.2019 15:00:00 22,1 15,5 23,7 27,1 22,3 17,4 12 7 19 11 NNE 1022,1 44 11 0,0
17.06.2019 14:00:00 22,1 14,3 24,6 28,0 22,0 17,4 8 4 16 9 NNE 1022,2 50 12 0,0
17.06.2019 13:00:00 22,2 14,7 26,2 27,9 21,5 17,4 11 6 17 9 NNE 1022,2 39 17 0,0
17.06.2019 12:00:00 21,4 13,9 24,4 28,9 20,9 17,4 10 6 19 10 N 1022,3 36 40 0,0
17.06.2019 11:00:00 22,4 13,0 29,8 27,3 20,3 17,4 8 4 21 12 W 1022,5 26 58 0,0
17.06.2019 10:00:00 21,8 13,3 26,5 24,7 19,9 17,4 8 4 19 11 SW 1022,6 33 60 0,0
17.06.2019 09:00:00 20,2 13,3 24,0 22,0 19,7 17,4 10 5 16 9 SW 1022,7 20 60 0,0
17.06.2019 08:00:00 18,1 13,0 20,9 19,3 19,7 17,4 8 4 13 7 SW 1022,6 34 60 0,0
17.06.2019 07:00:00 15,7 12,1 17,0 17,1 19,9 17,4 8 5 12 7 S 1022,2 27 60 0,0
17.06.2019 06:00:00 13,1 11,2 12,7 15,7 20,2 17,4 6 3 13 7 SSW 1022,0 24 30 0,0
17.06.2019 05:00:00 11,6 10,3 9,9 15,7 20,6 17,4 8 4 9 5 S 1021,8 31 0 0,0
17.06.2019 04:00:00 10,7 10,2 8,2 16,1 21,0 17,4 5 3 7 4 SSW 1021,9 13 0 0,0
17.06.2019 03:00:00 11,3 10,6 8,4 16,7 21,3 17,4 5 3 6 3 SSW 1022,1 22 0 0,0
17.06.2019 02:00:00 11,8 10,3 8,9 17,3 21,8 17,4 5 3 9 5 S 1022,0 37 0 0,0
17.06.2019 01:00:00 12,6 11,5 9,2 18,0 22,2 17,4 5 3 6 4 S 1021,6 30 0 0,0
17.06.2019 00:00:00 13,2 11,3 10,0 18,9 22,6 17,4 3 2 6 3 SSW 1021,5 36 0 0,0
16.06.2019 23:00:00 13,7 11,2 10,7 20,1 23,0 17,4 5 3 8 5 SSW 1021,4 43 0 0,0
16.06.2019 22:00:00 15,9 11,2 12,3 21,6 23,3 17,4 5 3 12 7 WSW 1021,4 70 10 0,0
16.06.2019 21:00:00 18,4 11,2 17,2 23,5 23,5 17,3 7 4 22 12 W 1020,6 70 60 0,0
16.06.2019 20:00:00 19,4 10,8 19,9 25,1 23,6 17,3 14 7 30 16 WNW 1020,5 60 60 0,0
16.06.2019 19:00:00 20,2 10,6 22,7 26,1 23,6 17,3 17 9 28 15 WNW 1020,3 46 20 0,0
16.06.2019 18:00:00 20,1 10,2 22,0 26,8 23,6 17,3 16 9 27 15 WNW 1020,2 64 19 0,0
16.06.2019 17:00:00 21,9 11,2 27,3 26,1 23,5 17,3 16 9 27 15 WNW 1020,1 57 4 0,0
16.06.2019 16:00:00 21,0 10,7 23,4 28,6 23,2 17,3 14 8 32 17 WNW 1020,4 55 27 0,0
16.06.2019 15:00:00 21,9 9,8 27,5 29,7 22,8 17,3 14 7 32 17 NW 1019,9 55 39 0,0
16.06.2019 14:00:00 21,2 10,3 25,3 29,9 22,2 17,3 16 9 29 16 NW 1019,7 29 47 0,0
16.06.2019 13:00:00 21,3 12,3 27,7 29,1 21,7 17,3 14 8 32 17 NW 1019,3 19 57 0,0
16.06.2019 12:00:00 20,3 12,5 26,6 26,8 21,2 17,3 16 9 31 17 WNW 1018,9 24 51 0,0
16.06.2019 11:00:00 19,0 12,5 24,9 24,9 20,9 17,3 18 10 31 17 NW 1018,6 22 50 0,0
16.06.2019 10:00:00 17,7 12,4 20,9 22,1 20,9 17,3 18 10 35 19 W 1018,1 37 28 0,0
16.06.2019 09:00:00 16,5 11,8 18,7 20,0 21,0 17,3 23 13 38 21 W 1017,7 70 1 0,0
16.06.2019 08:00:00 16,1 11,9 17,2 19,2 21,1 17,3 16 9 30 16 W 1017,3 70 0 0,0
16.06.2019 07:00:00 15,9 12,2 16,1 18,8 21,3 17,2 14 7 33 18 W 1016,9 70 0 0,0
16.06.2019 06:00:00 15,8 13,7 15,9 18,8 21,6 17,2 16 9 37 20 WNW 1016,1 24 0 0,0
16.06.2019 05:00:00 16,1 14,1 16,1 19,1 21,8 17,2 22 12 37 20 W 1015,1 18 0 0,0
16.06.2019 04:00:00 17,2 15,1 17,2 19,3 22,1 17,2 18 10 38 21 W 1014,3 16 0 0,0
16.06.2019 03:00:00 17,6 15,9 16,7 19,3 22,4 17,2 16 9 26 14 W 1013,9 13 0 0,0
16.06.2019 02:00:00 17,1 16,0 16,2 19,8 22,8 17,2 10 5 19 10 WSW 1013,8 7 0 0,0
16.06.2019 01:00:00 17,8 15,9 16,7 20,4 23,1 17,2 11 6 21 12 WSW 1013,5 12 0 0,0
16.06.2019 00:00:00 18,5 16,0 17,5 21,2 23,5 17,2 13 7 21 12 W 1013,2 17 0 0,0
15.06.2019 23:00:00 18,6 16,2 17,7 22,4 23,8 17,2 8 4 26 14 W 1012,7 9 0 0,0
15.06.2019 22:00:00 19,6 16,6 19,4 23,3 24,0 17,2 12 6 30 16 W 1011,7 29 0 0,0
15.06.2019 21:00:00 21,3 17,3 21,1 24,7 24,2 17,2 13 7 36 19 WNW 1010,9 38 23 0,0
15.06.2019 20:00:00 23,4 18,4 23,9 25,8 24,4 17,2 24 13 42 23 WSW 1009,4 24 30 0,0
15.06.2019 19:00:00 23,6 20,3 22,5 26,2 24,5 17,1 8 5 29 16 W 1007,8 18 0 0,1
15.06.2019 18:00:00 27,3 20,4 26,5 28,2 24,4 17,1 9 5 26 14 WSW 1008,3 18 0 0,0
15.06.2019 17:00:00 29,7 19,7 30,2 30,5 24,2 17,1 14 8 26 14 S 1007,8 24 34 0,0
15.06.2019 16:00:00 29,1 20,4 30,2 28,9 24,0 17,1 14 8 27 14 S 1008,7 24 0 0,0
15.06.2019 15:00:00 29,0 19,8 30,3 29,4 23,7 17,1 18 10 39 21 SE 1008,8 23 0 0,0
15.06.2019 14:00:00 28,6 19,0 29,8 30,2 23,3 17,1 20 11 34 19 SE 1009,1 32 1 0,0
15.06.2019 13:00:00 28,0 18,2 30,1 31,7 22,7 17,1 18 10 40 22 E 1009,6 21 48 0,0
15.06.2019 12:00:00 27,0 17,7 30,6 29,6 22,2 17,1 19 10 37 20 E 1009,9 24 59 0,0
15.06.2019 11:00:00 25,6 16,7 29,0 27,0 21,9 17,1 19 11 37 20 ESE 1011,3 19 49 0,0
15.06.2019 10:00:00 22,9 17,7 25,2 23,7 21,8 17,0 15 8 24 13 ENE 1011,7 34 8 0,0
15.06.2019 09:00:00 21,8 15,9 22,1 22,9 21,8 17,0 12 6 33 18 E 1012,9 42 20 0,0
15.06.2019 08:00:00 22,0 15,1 22,6 21,2 21,9 17,0 16 8 36 19 E 1012,9 41 10 0,0
15.06.2019 07:00:00 21,3 14,6 21,0 20,7 22,1 17,0 16 8 30 16 SE 1014,3 49 0 0,0
15.06.2019 06:00:00 20,6 15,4 19,9 20,6 22,3 17,0 11 6 23 13 E 1014,4 35 0 0,0
15.06.2019 05:00:00 20,9 14,6 20,0 20,6 22,6 17,0 9 5 19 10 E 1015,2 26 0 0,0
15.06.2019 04:00:00 21,5 14,1 20,6 20,9 22,8 17,0 11 6 28 15 SE 1015,5 41 0 0,0
15.06.2019 03:00:00 21,6 13,8 20,9 21,3 23,1 17,0 14 8 27 14 SE 1016,1 53 0 0,0
15.06.2019 02:00:00 22,1 13,1 21,5 21,8 23,4 17,0 11 6 22 12 SE 1016,4 49 0 0,0
15.06.2019 01:00:00 22,6 13,3 21,8 22,3 23,8 17,0 10 5 23 12 SE 1017,0 70 0 0,0
15.06.2019 00:00:00 22,5 14,7 21,7 22,8 24,1 17,0 10 5 21 11 E 1017,1 70 0 0,0
14.06.2019 23:00:00 22,7 15,4 21,9 23,3 24,5 17,0 10 5 21 12 E 1017,5 60 0 0,0
14.06.2019 22:00:00 22,7 15,4 21,0 24,3 24,8 17,0 9 5 16 9 E 1017,4 66 5 0,0
14.06.2019 21:00:00 23,8 16,5 22,8 26,0 25,1 17,0 7 4 26 14 E 1017,4 68 12 0,0
14.06.2019 20:00:00 23,7 18,5 23,6 27,5 25,3 17,0 13 7 27 14 E 1017,5 70 12 0,0
14.06.2019 19:00:00 24,5 18,0 24,9 28,9 25,3 17,0 14 8 30 16 E 1017,8 70 0 0,0
14.06.2019 18:00:00 25,1 16,2 26,1 31,4 25,2 16,9 16 9 25 13 ENE 1017,8 66 36 0,0
14.06.2019 17:00:00 25,8 16,1 28,9 33,0 24,8 16,9 11 6 29 15 NE 1018,4 52 59 0,0
14.06.2019 16:00:00 25,5 15,8 29,6 34,2 24,2 16,9 13 7 27 15 ENE 1018,6 46 60 0,0
14.06.2019 15:00:00 25,5 16,5 30,7 34,0 23,5 16,9 14 8 27 14 NE 1019,0 39 60 0,0
14.06.2019 14:00:00 24,7 16,8 29,3 33,2 22,7 16,9 13 7 25 14 ENE 1019,2 27 60 0,0
14.06.2019 13:00:00 24,1 17,9 27,9 32,2 21,9 16,9 14 8 28 15 ENE 1019,3 27 60 0,0
14.06.2019 12:00:00 24,3 17,2 31,0 30,5 21,2 16,9 9 5 18 10 NE 1019,7 47 60 0,0
14.06.2019 11:00:00 24,3 15,0 29,4 27,7 20,6 16,9 6 4 18 10 SSW 1019,7 31 60 0,0
14.06.2019 10:00:00 22,4 14,6 26,1 24,7 20,2 16,9 11 6 19 10 SSW 1019,9 20 60 0,0
14.06.2019 09:00:00 21,0 13,2 23,8 22,0 20,0 16,9 11 6 19 10 SSE 1019,6 31 60 0,0
14.06.2019 08:00:00 19,1 13,0 21,4 19,9 20,1 16,9 8 5 17 9 S 1019,2 36 60 0,0
14.06.2019 07:00:00 17,7 13,4 18,5 18,0 20,3 16,9 6 3 14 7 SE 1018,7 50 60 0,0
14.06.2019 06:00:00 15,6 13,5 14,6 16,5 20,6 16,9 5 3 8 5 SE 1018,4 58 29 0,0

tt = temperature
td = dewpoint
tt 5cm = temperature 5cm
tt -5cm = temperature -5cm
tt -20cm = temperature -20cm
tt -100cm = temperature -100cm
ff = wind speed
fx = gusts
dd = wind direction
ppp = reduced air pressure
vv = visibility
sd = sunshine duration
rr = precipitation

Next stations